• In Hungary
  • List of Countries
  • For 7 days
  • Water Temperature
  • Satellite Maps
  • Weather Map
  • News
  • Weather Widgets
  • user-avatar
    Login

    Hourly Weather San Fernando

    Today, 25 September, Tuesday

    Time Temperature Precipitation Wind Pressure Humidity
    00:00 +28°C° 0 mm 5 mps 762 mmHg 36%
    01:00 +28°C° 0 mm 5 mps 762 mmHg 37%
    02:00 +28°C° 0 mm 5 mps 762 mmHg 37%
    03:00 +27°C° 0 mm 4 mps 761 mmHg 37%
    04:00 +27°C° 0 mm 4 mps 762 mmHg 38%
    05:00 +27°C° 0 mm 4 mps 762 mmHg 39%
    06:00 +26°C° 0 mm 4 mps 762 mmHg 40%
    07:00 +28°C° 0 mm 4 mps 762 mmHg 37%
    08:00 +30°C° 0 mm 5 mps 762 mmHg 35%
    09:00 +33°C° 0 mm 6 mps 763 mmHg 32%
    10:00 +34°C° 0 mm 6 mps 763 mmHg 31%
    11:00 +35°C° 0 mm 7 mps 763 mmHg 30%
    12:00 +38°C° 0 mm 7 mps 763 mmHg 29%
    13:00 +38°C° 0 mm 7 mps 762 mmHg 30%
    14:00 +38°C° 0 mm 8 mps 762 mmHg 31%
    15:00 +38°C° 0 mm 8 mps 762 mmHg 32%
    16:00 +35°C° 0 mm 8 mps 762 mmHg 36%
    17:00 +34°C° 0 mm 8 mps 762 mmHg 41%
    18:00 +33°C° 0 mm 8 mps 762 mmHg 45%
    19:00 +32°C° 0 mm 8 mps 762 mmHg 49%
    20:00 +31°C° 0 mm 9 mps 762 mmHg 52%
    21:00 +29°C° 0 mm 9 mps 763 mmHg 56%
    22:00 +28°C° 0 mm 10 mps 763 mmHg 59%
    23:00 +28°C° 0 mm 10 mps 763 mmHg 61%

    Tomorrow, 26 September, Wednesday

    Time Temperature Precipitation Wind Pressure Humidity
    00:00 +28°C° 0 mm 10 mps 763 mmHg 64%
    01:00 +27°C° 0 mm 10 mps 763 mmHg 65%
    02:00 +27°C° 0 mm 10 mps 763 mmHg 66%
    03:00 +27°C° 0 mm 10 mps 762 mmHg 68%
    04:00 +27°C° 0 mm 9 mps 763 mmHg 68%
    05:00 +26°C° 0 mm 9 mps 763 mmHg 69%
    06:00 +26°C° 0 mm 9 mps 763 mmHg 70%
    07:00 +27°C° 0 mm 9 mps 763 mmHg 65%
    08:00 +28°C° 0 mm 10 mps 764 mmHg 60%
    09:00 +31°C° 0 mm 10 mps 764 mmHg 55%
    10:00 +32°C° 0 mm 10 mps 764 mmHg 50%
    11:00 +33°C° 0 mm 10 mps 764 mmHg 46%
    12:00 +34°C° 0 mm 10 mps 764 mmHg 42%
    13:00 +34°C° 0 mm 10 mps 764 mmHg 41%
    14:00 +36°C° 0 mm 10 mps 763 mmHg 39%
    15:00 +36°C° 0 mm 10 mps 763 mmHg 38%
    16:00 +34°C° 0 mm 10 mps 763 mmHg 41%
    17:00 +33°C° 0 mm 10 mps 763 mmHg 45%
    18:00 +31°C° 0 mm 10 mps 763 mmHg 48%
    19:00 +29°C° 0 mm 10 mps 763 mmHg 51%
    20:00 +29°C° 0 mm 10 mps 764 mmHg 55%
    21:00 +28°C° 0 mm 10 mps 764 mmHg 58%
    22:00 +28°C° 0 mm 10 mps 764 mmHg 60%
    23:00 +27°C° 0 mm 10 mps 764 mmHg 62%

    Day after tomorrow, 27 September, Thursday

    Time Temperature Precipitation Wind Pressure Humidity
    00:00 +27°C° 0 mm 10 mps 764 mmHg 65%
    01:00 +27°C° 0 mm 9 mps 764 mmHg 65%
    02:00 +27°C° 0 mm 9 mps 764 mmHg 66%
    03:00 +26°C° 0 mm 8 mps 764 mmHg 66%
    04:00 +26°C° 0 mm 8 mps 764 mmHg 68%
    05:00 +26°C° 0 mm 8 mps 764 mmHg 69%
    06:00 +26°C° 0 mm 8 mps 764 mmHg 70%
    07:00 +27°C° 0 mm 8 mps 765 mmHg 65%
    08:00 +28°C° 0 mm 9 mps 765 mmHg 59%
    09:00 +29°C° 0 mm 9 mps 765 mmHg 53%
    10:00 +31°C° 0 mm 9 mps 765 mmHg 49%
    11:00 +33°C° 0 mm 9 mps 765 mmHg 44%
    12:00 +34°C° 0 mm 9 mps 765 mmHg 39%
    13:00 +34°C° 0 mm 9 mps 765 mmHg 38%
    14:00 +34°C° 0 mm 9 mps 764 mmHg 38%
    15:00 +34°C° 0 mm 9 mps 764 mmHg 37%
    16:00 +33°C° 0 mm 9 mps 763 mmHg 40%
    17:00 +32°C° 0 mm 9 mps 763 mmHg 44%
    18:00 +31°C° 0 mm 9 mps 763 mmHg 48%
    19:00 +29°C° 0 mm 9 mps 764 mmHg 52%
    20:00 +28°C° 0 mm 9 mps 764 mmHg 57%
    21:00 +27°C° 0 mm 9 mps 764 mmHg 61%
    22:00 +27°C° 0 mm 9 mps 764 mmHg 62%
    23:00 +26°C° 0 mm 9 mps 764 mmHg 64%

    28 September, Friday

    Time Temperature Precipitation Wind Pressure Humidity
    00:00 +26°C° 0 mm 9 mps 764 mmHg 65%
    01:00 +26°C° 0 mm 8 mps 763 mmHg 66%
    02:00 +24°C° 0 mm 7 mps 763 mmHg 67%
    03:00 +24°C° 0 mm 7 mps 763 mmHg 69%
    04:00 +24°C° 0 mm 6 mps 763 mmHg 70%
    05:00 +23°C° 0 mm 6 mps 762 mmHg 71%
    06:00 +23°C° 0 mm 6 mps 762 mmHg 72%
    07:00 +24°C° 0 mm 6 mps 763 mmHg 65%
    08:00 +27°C° 0 mm 6 mps 763 mmHg 59%
    09:00 +28°C° 0 mm 6 mps 763 mmHg 53%
    10:00 +30°C° 0 mm 6 mps 763 mmHg 49%
    11:00 +32°C° 0 mm 6 mps 762 mmHg 45%
    12:00 +33°C° 0 mm 6 mps 762 mmHg 41%
    13:00 +34°C° 0 mm 5 mps 761 mmHg 40%
    14:00 +34°C° 0 mm 5 mps 761 mmHg 39%
    15:00 +34°C° 0 mm 5 mps 760 mmHg 38%
    16:00 +33°C° 0 mm 6 mps 760 mmHg 43%
    17:00 +32°C° 0 mm 6 mps 760 mmHg 47%
    18:00 +29°C° 0 mm 6 mps 760 mmHg 51%
    19:00 +28°C° 0 mm 6 mps 760 mmHg 55%
    20:00 +27°C° 0 mm 6 mps 760 mmHg 58%
    21:00 +26°C° 0 mm 6 mps 761 mmHg 62%
    22:00 +26°C° 0 mm 6 mps 761 mmHg 63%
    23:00 +26°C° 0 mm 6 mps 760 mmHg 63%

    29 September, Saturday

    Time Temperature Precipitation Wind Pressure Humidity
    00:00 +24°C° 0 mm 6 mps 760 mmHg 64%
    01:00 +25°C° 0 mm 5 mps 760 mmHg 65%
    02:00 +25°C° 0 mm 5 mps 760 mmHg 66%
    03:00 +23°C° 0 mm 4 mps 760 mmHg 68%
    04:00 +23°C° 0 mm 4 mps 760 mmHg 69%
    05:00 +23°C° 0 mm 4 mps 760 mmHg 71%
    06:00 +23°C° 0 mm 4 mps 760 mmHg 72%
    07:00 +25°C° 0 mm 5 mps 760 mmHg 66%
    08:00 +27°C° 0 mm 5 mps 760 mmHg 60%
    09:00 +28°C° 0 mm 5 mps 760 mmHg 54%
    10:00 +30°C° 0 mm 5 mps 760 mmHg 50%
    11:00 +32°C° 0 mm 5 mps 760 mmHg 45%
    12:00 +34°C° 0 mm 5 mps 760 mmHg 40%
    13:00 +34°C° 0 mm 5 mps 759 mmHg 40%
    14:00 +34°C° 0 mm 5 mps 759 mmHg 40%
    15:00 +34°C° 0 mm 5 mps 759 mmHg 40%
    16:00 +33°C° 0 mm 5 mps 759 mmHg 45%
    17:00 +30°C° 0 mm 5 mps 759 mmHg 50%
    18:00 +29°C° 0 mm 5 mps 759 mmHg 55%
    19:00 +28°C° 0.1 mm 5 mps 759 mmHg 59%
    20:00 +27°C° 0.1 mm 5 mps 759 mmHg 63%
    21:00 +26°C° 0.1 mm 5 mps 760 mmHg 67%
    22:00 +26°C° 0.1 mm 5 mps 760 mmHg 68%
    23:00 +26°C° 0.1 mm 5 mps 760 mmHg 68%

    30 September, Sunday

    Time Temperature Precipitation Wind Pressure Humidity
    00:00 +26°C° 0.1 mm 5 mps 759 mmHg 69%
    01:00 +25°C° 0 mm 4 mps 759 mmHg 70%
    02:00 +25°C° 0 mm 4 mps 759 mmHg 71%
    03:00 +23°C° 0 mm 4 mps 759 mmHg 72%
    04:00 +23°C° 0 mm 4 mps 759 mmHg 72%
    05:00 +23°C° 0 mm 4 mps 759 mmHg 73%
    06:00 +23°C° 0 mm 4 mps 760 mmHg 73%
    07:00 +25°C° 0 mm 4 mps 760 mmHg 67%
    08:00 +26°C° 0 mm 4 mps 760 mmHg 61%
    09:00 +28°C° 0 mm 4 mps 760 mmHg 55%
    10:00 +29°C° 0 mm 4 mps 760 mmHg 50%
    11:00 +32°C° 0 mm 4 mps 760 mmHg 45%
    12:00 +33°C° 0 mm 4 mps 760 mmHg 40%
    13:00 +33°C° 0 mm 4 mps 760 mmHg 40%
    14:00 +33°C° 0 mm 4 mps 760 mmHg 40%
    15:00 +33°C° 0 mm 4 mps 760 mmHg 40%
    16:00 +32°C° 0 mm 4 mps 760 mmHg 44%
    17:00 +30°C° 0 mm 4 mps 760 mmHg 48%
    18:00 +29°C° 0 mm 4 mps 760 mmHg 52%
    19:00 +28°C° 0 mm 3 mps 760 mmHg 56%
    20:00 +27°C° 0 mm 3 mps 761 mmHg 61%
    21:00 +26°C° 0 mm 3 mps 761 mmHg 66%
    22:00 +25°C° 0 mm 3 mps 761 mmHg 68%
    23:00 +25°C° 0 mm 3 mps 761 mmHg 70%
    Show more